Chadron, NE

2:54 AM MDT on July 27, 2017 (GMT -0600)
Chadron Municipal

Weather History for KCDR - September, 2013

Change the Weather History Date:

Sunday, September 22, 2013

  Actual Average Record
Temperature  
Mean Temperature 72 °F 58 °F  
Max Temperature 94 °F 75 °F 97 °F (1967)
Min Temperature 50 °F 41 °F 27 °F (1916)
Degree Days  
Heating Degree Days 0 8  
Month to date heating degree days 32 103  
Since 1 July heating degree days 32 133  
Cooling Degree Days 7 1  
Month to date cooling degree days 146 57  
Year to date cooling degree days 914 704  
Growing Degree Days 20 (Base 50)    
Moisture  
Dew Point 47 °F    
Average Humidity 54    
Maximum Humidity 93    
Minimum Humidity 14    
Precipitation  
Precipitation 0.18 in 0.06 in 0.42 in (1985)
Month to date precipitation 0.85 1.30  
Year to date precipitation 13.21 15.17  
Sea Level Pressure  
Sea Level Pressure 29.54 in    
Wind  
Wind Speed 6 mph (SW)    
Max Wind Speed 20 mph    
Max Gust Speed 26 mph    
Visibility 9 miles    
Events Rain , Thunderstorm    
T = Trace of Precipitation, MM = Missing Value Source: NWS Daily Summary

Daily Weather History Graph

Daily Weather History Graph

Search for Another Location

Airport or City:

Trip Planner

Search our weather history database for the weather conditions in past years. The results will help you decide how hot, cold, wet, or windy it might be!

Date:

Astronomy

Sep. 22, 2013 Rise Set
Actual Time 6:40 AM MDT 6:49 PM MDT
Civil Twilight 6:11 AM MDT 7:17 PM MDT
Nautical Twilight 5:38 AM MDT 7:50 PM MDT
Astronomical Twilight 5:04 AM MDT 8:24 PM MDT
Moon 8:34 PM MDT (9/22) 10:08 AM MDT (9/22)
Length of Visible Light 13h 05m
Length of Day
12h 09m
Waning Gibbous, 88% of the Moon is Illuminated
Sep 22
Waning Gibbous
Sep 26
Last Quarter
Oct 4
New
Oct 11
First Quarter
Oct 18
Full

Hourly Weather History & Observations

Time (MDT) Temp. Dew Point Humidity Pressure Visibility Wind Dir Wind Speed Gust Speed Precip Events Conditions
12:53 AM 71.1 °F 46.0 °F 41% 29.58 in 10.0 mi WSW 10.4 mph - N/A   Clear
1:53 AM 64.0 °F 46.0 °F 52% 29.59 in 10.0 mi WSW 6.9 mph - N/A   Clear
2:53 AM 61.0 °F 46.0 °F 58% 29.59 in 10.0 mi SW 5.8 mph - N/A   Clear
3:53 AM 61.0 °F 46.9 °F 60% 29.58 in 10.0 mi SSW 6.9 mph - N/A   Clear
4:53 AM 57.9 °F 46.9 °F 67% 29.58 in 10.0 mi Calm Calm - N/A   Clear
5:53 AM 55.9 °F 46.9 °F 72% 29.59 in 10.0 mi Calm Calm - N/A   Clear
6:53 AM 50.0 °F 45.0 °F 83% 29.61 in 10.0 mi Calm Calm - N/A   Clear
7:53 AM 57.9 °F 46.9 °F 67% 29.60 in 10.0 mi Calm Calm - N/A   Clear
8:53 AM 73.9 °F 48.9 °F 41% 29.57 in 10.0 mi Variable 4.6 mph - N/A   Clear
9:53 AM 82.9 °F 45.0 °F 26% 29.55 in 10.0 mi SSW 13.8 mph - N/A   Clear
10:53 AM 89.1 °F 42.1 °F 19% 29.52 in 10.0 mi WSW 13.8 mph - N/A   Clear
11:53 AM 91.0 °F 42.1 °F 18% 29.49 in 10.0 mi West 9.2 mph - N/A   Clear
12:53 PM 91.9 °F 42.1 °F 18% 29.46 in 10.0 mi West 10.4 mph - N/A   Scattered Clouds
1:53 PM 91.9 °F 41.0 °F 17% 29.44 in 10.0 mi WSW 10.4 mph - N/A   Scattered Clouds
2:53 PM 91.9 °F 39.0 °F 16% 29.42 in 10.0 mi West 5.8 mph - N/A   Clear
3:53 PM 91.9 °F 36.0 °F 14% 29.41 in 10.0 mi Variable 6.9 mph - N/A   Clear
4:53 PM 89.1 °F 39.0 °F 17% 29.41 in 8.0 mi WSW 8.1 mph - N/A   Partly Cloudy
5:53 PM 84.0 °F 42.1 °F 23% 29.44 in 9.0 mi WSW 10.4 mph - N/A   Partly Cloudy
6:32 PM 77.0 °F 46.4 °F 34% 29.51 in 10.0 mi WNW 11.5 mph - 0.00 in Rain Light Rain
6:53 PM 75.9 °F 45.0 °F 33% 29.49 in 10.0 mi West 5.8 mph - 0.00 in   Mostly Cloudy
7:38 PM 73.4 °F 46.4 °F 38% 29.54 in 10.0 mi WSW 9.2 mph - N/A Thunderstorm Mostly Cloudy
7:53 PM 73.0 °F 46.9 °F 39% 29.50 in 10.0 mi WNW 8.1 mph 19.6 mph 0.00 in Rain , Thunderstorm Light Rain
8:34 PM 62.6 °F 57.2 °F 82% 29.65 in 8.0 mi SSE 17.3 mph - 0.01 in Rain , Thunderstorm Light Rain
8:39 PM 62.6 °F 57.2 °F 82% 29.65 in 7.0 mi SSE 13.8 mph - 0.01 in Rain , Thunderstorm Light Rain
8:53 PM 61.0 °F 57.9 °F 90% 29.60 in 5.0 mi SSE 8.1 mph - 0.04 in Rain , Thunderstorm Rain
9:00 PM 60.8 °F 57.2 °F 88% 29.65 in 5.0 mi SE 9.2 mph - 0.01 in Rain Light Rain
9:53 PM 60.1 °F 59.0 °F 96% 29.56 in 10.0 mi NNW 3.5 mph - 0.10 in Rain Light Rain
10:53 PM 60.1 °F 57.9 °F 93% 29.52 in 10.0 mi Calm Calm - 0.02 in Rain Light Rain
11:53 PM 59.0 °F 57.9 °F 96% 29.48 in 10.0 mi SSW 6.9 mph - 0.02 in Rain Light Rain